Temperature
23 24 23 22 22 22 21 21 21 21 20 20 20 20 20 20 20 19 19 19 19 19 19 19 19 19 19 19 19 19 19 19 19 19 19 19 19 18 18 17 17 17 18
24 24 23 23 22 22 22 21 21 20 20 20 20 20 20 19 19 19 19 19 19 19 19 19 19 19 19 19 19 19 19 19 19 19 19 19 19 18 18 17 17 18 18
24 24 23 23 22 22 22 21 21 20 20 20 20 20 20 19 19 19 19 19 19 19 19 19 19 18 19 19 19 19 19 19 19 19 18 18 19 18 18 18 18 18 18
24 24 23 23 23 22 22 22 21 21 20 20 20 20 19 19 19 19 19 19 19 19 19 18 19 19 19 19 19 19 19 19 19 18 18 18 18 19 18 18 18 18 18
23 23 23 23 23 22 22 22 21 21 20 20 20 20 19 19 19 19 19 19 19 19 19 19 19 19 19 19 20 20 20 20 19 19 18 18 18 19 19 19 18 18 18
22 23 23 23 23 22 22 21 21 21 20 20 20 20 19 19 19 19 19 19 19 19 18 19 19 19 19 20 20 20 20 20 19 18 18 18 18 19 19 19 19 18 18
22 23 23 23 22 22 22 21 21 21 21 20 20 20 20 19 19 19 19 19 19 19 18 19 19 19 20 20 20 20 20 20 20 19 18 18 19 19 19 19 19 19 18
23 23 23 23 22 22 22 21 21 21 21 21 20 20 20 20 20 20 19 19 19 19 19 19 19 19 20 20 20 20 20 20 19 19 19 19 19 19 19 19 19 19 19
24 23 23 23 22 22 21 21 21 21 21 21 21 20 20 20 20 20 19 19 19 19 19 19 19 19 20 20 20 20 20 20 20 19 19 19 19 19 19 19 19 19 19
24 23 23 22 22 22 21 21 21 21 21 21 21 20 20 20 20 20 20 19 19 19 19 19 19 19 20 20 20 20 20 20 20 19 19 19 19 19 19 19 19 19 19
24 23 22 21 21 21 20 21 21 20 20 20 20 20 20 20 20 20 20 20 20 19 19 19 19 19 19 19 19 19 19 20 20 19 19 19 19 19 19 19 19 19 19
24 23 22 21 20 20 20 19 20 19 20 20 20 19 19 19 19 19 19 19 19 19 19 19 19 19 19 19 19 19 19 19 19 19 19 19 19 19 19 19 19 19 18
23 22 22 21 21 20 20 19 19 19 19 19 19 19 19 18 18 18 18 18 18 18 18 18 18 19 18 19 18 18 18 18 18 18 19 19 19 19 19 19 19 19 18
21 21 21 21 21 21 20 20 19 19 19 19 19 18 18 18 18 18 18 18 18 18 18 18 18 18 18 18 18 18 18 18 18 18 18 18 18 19 19 19 19 19 19
21 20 20 20 20 20 20 20 19 19 19 19 19 18 18 18 18 18 18 18 17 17 17 17 17 17 17 17 17 18 18 18 18 18 18 18 18 18 18 18 19 19 19
20 20 20 19 19 19 19 19 19 18 18 18 18 18 18 18 17 17 17 17 17 17 17 17 17 17 17 17 17 18 18 18 18 18 18 18 18 18 18 18 18 18 18
19 19 19 19 18 18 18 18 18 18 18 18 18 18 18 17 17 17 17 17 17 17 16 16 16 16 17 17 17 17 18 18 18 18 18 18 17 17 17 18 18 18 18
19 18 19 18 18 18 18 18 18 18 18 17 17 17 17 17 17 17 17 17 17 17 16 16 16 16 16 16 17 17 17 17 18 18 17 17 17 17 17 17 17 18 18
18 18 18 18 18 17 17 17 17 17 17 17 17 17 17 17 17 17 17 17 17 17 17 16 16 16 16 16 16 17 17 17 17 18 18 17 17 17 17 17 17 17 17
17 17 17 17 17 17 17 17 17 17 17 17 17 17 16 16 16 16 16 17 17 17 17 17 16 16 16 16 16 17 17 17 17 18 17 17 17 17 17 17 17 17 17
18 17 17 17 17 16 17 17 16 16 17 17 17 16 16 16 16 16 16 16 16 16 16 16 16 16 16 16 16 16 17 17 18 18 18 18 18 18 17 17 17 17 17
18 18 17 16 16 16 16 16 16 16 16 17 17 16 16 15 16 15 15 16 16 16 16 16 16 16 16 16 16 16 17 18 18 18 18 18 18 18 17 17 17 17 17
19 18 17 16 16 15 15 15 15 15 15 16 16 16 15 15 15 15 15 15 16 16 16 16 16 16 16 16 16 16 17 18 18 19 18 18 18 18 18 18 18 17 17
19 18 17 17 16 15 15 14 14 14 14 14 15 15 15 15 15 15 15 15 15 15 15 15 15 16 16 16 16 16 17 17 17 18 18 18 18 18 18 18 18 18 17
19 18 17 17 16 15 14 14 13 13 13 13 13 14 14 14 14 15 15 15 15 15 15 15 15 15 15 16 16 16 16 17 17 17 17 18 18 18 17 18 18 18 17
18 18 17 16 15 14 14 13 13 12 12 12 13 13 13 14 14 14 14 14 14 14 14 15 15 15 15 15 16 16 16 16 17 17 17 18 18 18 17 17 17 17 17
Wind_Speed
18 19 20 18 16 15 13 12 12 12 12 11 11 11 10 10 10 9 9 9 9 8 8 8 8 7 7 8 10 10 10 10 11 12 13 14 13 12 11 9 11 17 17
21 20 20 18 16 15 14 13 12 12 13 12 12 11 11 11 10 9 9 8 7 7 7 7 8 8 8 9 9 9 9 8 8 9 11 12 12 11 11 11 13 15 16
22 20 19 18 16 15 14 13 12 12 13 12 12 12 12 11 10 10 9 8 7 7 7 7 8 8 8 9 8 8 7 6 5 5 6 10 12 11 11 14 16 15 15
21 19 18 18 16 15 14 13 12 12 12 12 12 12 12 11 11 10 9 8 7 7 7 7 8 8 9 8 8 7 6 5 4 4 6 7 12 12 11 12 12 13 13
19 18 20 19 17 15 13 12 11 11 12 12 12 12 11 11 10 10 9 8 8 7 7 7 8 8 8 8 7 7 6 5 4 6 5 11 14 13 12 11 10 11 11
19 19 20 18 17 15 13 12 11 10 10 10 10 10 10 10 10 9 9 9 9 9 9 8 8 9 9 8 8 7 6 6 6 10 7 13 15 13 12 11 10 10 10
19 18 19 18 16 15 14 12 11 11 10 10 10 10 10 10 10 10 10 10 9 10 10 9 8 9 9 8 8 7 7 7 9 10 8 12 17 17 14 12 10 10 9
20 18 18 17 16 14 13 12 12 11 11 11 11 11 11 11 11 11 12 12 11 10 11 10 10 9 9 9 9 8 8 9 10 12 8 14 21 20 16 13 11 11 10
21 19 15 16 15 14 13 13 12 12 12 11 11 11 11 11 11 12 12 12 13 12 12 11 11 11 10 10 10 10 10 11 11 12 8 14 23 22 19 15 13 11 12
17 17 14 15 14 13 13 14 13 12 12 12 12 12 12 12 12 13 13 13 13 13 13 13 13 13 12 12 12 12 11 10 12 14 11 13 26 23 20 18 15 13 13
9 11 11 13 13 13 13 15 15 13 13 12 12 13 13 12 14 15 17 18 18 17 16 15 15 15 14 15 16 15 13 11 13 13 9 17 25 23 21 19 17 16 15
6 7 8 8 6 4 3 11 12 12 12 13 12 13 13 13 13 14 19 23 21 20 18 18 17 16 16 14 17 18 13 15 15 13 9 22 23 21 20 19 17 17 17
9 10 10 10 8 7 4 4 5 7 8 12 13 12 12 11 10 10 6 13 17 17 14 15 16 14 14 13 10 14 15 15 13 13 12 24 23 22 20 19 18 17 18
13 12 12 11 10 9 7 3 2 2 2 4 8 11 8 3 5 4 3 4 7 9 9 9 8 12 13 14 11 9 12 12 11 10 10 23 24 22 21 20 19 19 19
14 12 11 10 9 7 6 5 6 5 4 4 4 7 7 5 6 6 5 4 5 7 5 6 6 9 10 8 8 8 9 10 11 9 7 18 22 22 22 21 21 21 20
13 12 10 8 7 6 5 5 4 5 4 4 2 2 3 4 4 5 5 6 5 7 7 5 7 8 8 8 9 9 8 8 9 10 8 12 19 22 22 23 23 23 22
11 11 9 7 8 6 6 6 5 4 3 2 2 2 2 3 3 3 4 5 4 6 6 6 6 7 9 9 10 11 8 7 6 9 10 10 14 20 24 25 25 24 24
9 9 9 9 9 6 4 4 4 4 3 2 2 2 2 2 3 2 3 4 3 4 4 5 6 8 9 8 8 9 8 7 9 8 9 10 12 14 20 26 26 26 26
8 7 7 8 9 9 7 6 5 3 3 2 1 1 2 3 3 3 4 4 3 4 5 6 5 6 7 8 8 9 9 9 9 9 9 10 13 15 16 21 26 27 27
8 7 6 7 7 8 7 6 5 5 5 3 2 3 4 4 4 3 4 5 4 4 5 5 6 5 4 6 9 9 8 9 8 9 10 10 11 15 16 16 19 22 27
7 6 5 6 6 6 5 6 6 5 5 4 2 4 4 5 6 5 5 4 5 6 7 7 6 5 5 6 6 7 8 10 10 9 9 9 11 11 13 15 16 16 17
6 4 5 5 5 6 5 7 6 6 6 5 2 2 1 4 5 7 5 5 5 6 7 8 6 4 5 6 6 5 4 5 7 11 9 9 9 7 10 13 15 15 14
5 4 5 4 4 6 7 7 8 7 7 6 5 4 1 3 4 4 5 6 6 5 6 7 7 7 6 6 5 4 3 3 3 4 8 7 7 5 6 7 9 12 14
6 6 5 6 6 7 8 9 11 9 9 9 7 7 7 6 6 4 4 5 6 6 6 6 6 6 7 6 5 4 4 1 2 3 2 5 7 6 5 4 6 7 11
7 6 5 6 6 7 8 9 10 9 9 9 9 11 10 9 8 7 5 3 3 5 5 6 6 5 6 7 6 4 4 4 4 3 3 1 3 5 5 4 3 4 7
5 5 5 5 5 6 7 8 9 10 9 11 12 11 9 7 6 6 5 4 3 3 4 5 6 7 6 7 7 5 4 3 4 4 5 4 4 5 6 5 4 3 3
Wind_Direction
123 134 138 135 132 128 126 129 138 145 147 144 139 133 128 123 118 114 109 107 108 111 112 111 112 111 104 93 86 83 82 84 87 89 89 88 86 83 79 81 109 98 102
127 135 139 138 137 133 129 129 136 145 150 150 149 145 142 138 135 131 127 123 122 122 119 118 116 114 111 105 99 96 94 95 100 106 110 104 95 87 72 67 94 106 104
125 135 140 140 140 136 132 130 134 143 151 153 151 150 148 146 145 143 141 139 139 136 131 130 128 124 120 116 114 113 111 113 120 132 155 130 113 99 84 85 98 106 107
128 139 141 142 142 141 137 135 135 141 148 152 151 150 150 150 151 151 151 152 155 154 151 149 142 136 134 131 131 132 135 142 158 189 216 158 125 113 103 99 104 110 111
131 136 136 146 145 145 144 141 139 140 144 148 150 151 153 155 158 160 162 166 171 174 170 164 159 153 150 149 149 153 161 178 201 234 225 111 113 127 121 116 114 117 119
131 132 141 147 148 149 149 148 147 145 146 149 153 158 162 166 170 173 177 182 186 187 178 172 170 166 164 163 165 170 184 209 231 229 209 138 132 140 136 132 129 128 129
135 133 144 149 150 152 155 157 158 159 160 162 166 170 176 181 185 188 191 194 197 192 182 176 177 175 176 177 181 188 201 224 246 253 203 150 143 150 150 148 145 142 140
130 133 142 151 154 157 161 166 170 173 175 178 181 185 189 194 199 203 204 203 204 200 190 185 187 188 190 192 196 203 214 237 237 253 202 146 152 156 156 158 161 159 156
130 134 147 154 159 164 171 178 182 185 187 190 193 197 201 204 208 211 212 211 209 205 200 197 200 203 204 205 207 212 221 237 270 277 246 149 157 159 158 164 173 175 172
126 136 150 159 161 170 180 188 192 196 199 202 205 208 212 215 218 219 218 216 213 209 207 208 211 213 212 213 215 218 223 237 250 260 261 163 161 161 161 167 178 186 186
119 131 150 157 161 178 185 185 191 201 207 211 216 220 221 224 221 218 222 216 215 216 216 216 218 220 218 218 220 220 220 228 235 241 251 164 164 164 166 171 182 192 195
120 98 82 92 128 159 182 166 185 201 202 211 218 212 216 230 240 233 217 215 215 217 220 222 223 225 225 226 220 217 218 223 238 238 208 164 168 168 171 177 185 195 200
95 63 64 62 60 51 58 131 189 207 202 210 224 220 218 233 253 270 265 217 214 218 224 228 226 228 229 231 227 206 216 225 224 233 202 171 173 175 179 183 190 198 203
68 61 51 49 45 34 26 4 269 242 212 216 216 221 220 222 248 268 275 243 215 218 225 238 232 227 234 237 237 216 213 229 240 229 198 180 180 182 187 190 196 202 204
56 51 46 43 44 29 11 341 339 329 311 274 226 222 224 228 240 251 269 274 258 249 243 238 243 240 236 241 240 228 214 224 241 245 202 187 189 191 194 198 202 207 206
49 44 35 35 40 26 356 333 307 298 300 306 301 294 260 245 238 240 251 258 258 260 266 268 266 261 251 244 240 233 226 222 233 244 227 200 201 202 203 205 207 210 209
51 43 25 36 39 24 354 339 323 314 324 327 327 306 269 248 234 227 232 242 241 254 268 276 274 270 259 246 242 238 237 229 221 231 231 220 215 214 212 212 212 212 212
56 51 37 31 24 8 356 326 323 336 340 322 311 299 290 269 240 232 234 236 220 230 235 249 254 261 257 252 247 242 237 233 227 221 222 225 227 230 224 220 217 214 214
62 56 54 44 18 359 3 350 350 345 339 318 320 354 345 307 282 250 236 231 212 218 229 244 244 249 262 260 253 241 234 231 224 223 217 221 222 225 225 223 222 218 216
81 64 48 56 29 358 11 351 358 357 351 334 9 38 8 339 320 289 259 236 218 222 228 230 243 243 255 268 269 263 237 224 215 215 217 220 221 221 215 214 216 219 217
99 89 74 50 33 1 14 341 334 339 335 317 351 53 9 357 339 306 293 267 235 231 233 232 227 234 236 243 253 264 254 228 212 211 210 216 219 217 208 203 199 200 209
95 87 86 52 25 4 4 316 310 331 316 303 7 6 358 7 333 325 330 300 275 251 241 236 228 230 240 233 225 247 265 251 216 211 201 209 219 212 209 195 189 190 194
66 53 51 45 24 14 349 329 338 327 313 315 333 308 349 332 303 302 316 317 310 289 259 242 230 226 237 252 233 213 247 279 306 206 194 200 196 202 209 196 190 187 192
17 16 36 41 38 22 4 348 338 324 322 328 330 328 330 310 286 273 279 313 325 315 304 278 245 234 233 244 252 229 235 291 297 343 235 201 185 191 215 212 200 181 187
1 360 19 48 43 27 5 348 338 332 332 327 325 315 309 298 279 256 229 239 303 311 331 323 314 278 248 243 246 240 230 230 221 230 264 259 187 182 196 209 196 174 182
358 353 358 13 20 10 348 332 327 327 325 316 303 294 295 293 294 295 263 198 232 295 330 323 313 297 279 266 261 257 237 215 219 224 231 226 205 205 183 186 184 188 188
Height
1496 1498 1501 1504 1506 1508 1511 1514 1516 1519 1521 1523 1526 1527 1529 1531 1532 1533 1535 1536 1537 1538 1539 1540 1541 1542 1544 1545 1546 1546 1547 1547 1548 1549 1550 1551 1552 1553 1554 1554 1556 1557 1558
1495 1498 1501 1504 1506 1509 1511 1514 1517 1519 1521 1524 1526 1528 1529 1531 1533 1534 1535 1536 1537 1539 1540 1541 1542 1543 1544 1545 1546 1547 1547 1548 1549 1550 1551 1553 1554 1555 1556 1556 1557 1559 1560
1495 1499 1501 1504 1507 1509 1512 1514 1517 1519 1521 1524 1526 1527 1529 1531 1533 1534 1535 1537 1538 1539 1540 1541 1542 1543 1544 1545 1547 1548 1548 1549 1550 1552 1553 1555 1556 1557 1557 1558 1559 1561 1562
1497 1499 1502 1505 1507 1509 1512 1514 1517 1519 1521 1524 1526 1527 1529 1531 1532 1534 1535 1537 1538 1539 1540 1542 1543 1544 1545 1546 1547 1548 1549 1551 1552 1553 1554 1557 1557 1559 1559 1560 1561 1562 1563
1498 1500 1503 1505 1508 1510 1512 1514 1517 1519 1521 1524 1526 1527 1529 1531 1532 1534 1535 1536 1538 1539 1540 1542 1543 1544 1545 1546 1547 1549 1550 1551 1553 1554 1556 1558 1559 1560 1561 1561 1562 1563 1565
1500 1501 1504 1506 1509 1511 1513 1515 1517 1519 1522 1524 1526 1527 1529 1530 1532 1533 1535 1536 1537 1539 1540 1541 1542 1544 1545 1546 1547 1549 1550 1552 1553 1554 1557 1558 1559 1560 1561 1562 1563 1564 1566
1502 1503 1506 1508 1510 1512 1514 1516 1518 1520 1522 1524 1525 1527 1528 1530 1531 1533 1534 1535 1537 1538 1540 1541 1542 1543 1544 1546 1547 1548 1550 1551 1553 1554 1557 1558 1559 1560 1561 1562 1564 1565 1566
1503 1504 1507 1509 1511 1513 1515 1517 1518 1520 1522 1523 1525 1527 1528 1529 1530 1532 1533 1535 1536 1537 1539 1540 1541 1542 1543 1545 1546 1547 1549 1550 1552 1554 1557 1557 1558 1560 1561 1562 1563 1565 1567
1504 1505 1508 1510 1512 1514 1516 1518 1519 1521 1522 1523 1525 1526 1527 1528 1529 1531 1532 1534 1535 1536 1537 1538 1540 1541 1542 1543 1544 1546 1547 1549 1550 1552 1556 1556 1557 1559 1560 1562 1563 1564 1566
1507 1508 1509 1511 1513 1515 1517 1518 1520 1521 1522 1523 1524 1525 1526 1527 1528 1529 1530 1532 1533 1534 1535 1536 1538 1539 1540 1541 1542 1543 1545 1546 1548 1550 1552 1554 1555 1556 1558 1560 1562 1563 1565
1511 1511 1512 1513 1513 1515 1516 1518 1519 1521 1522 1522 1523 1524 1525 1526 1526 1527 1528 1530 1531 1532 1533 1534 1535 1536 1537 1538 1539 1540 1542 1543 1545 1547 1549 1550 1552 1553 1556 1558 1559 1561 1563
1513 1514 1514 1514 1515 1517 1518 1518 1519 1520 1520 1521 1522 1522 1522 1524 1525 1526 1526 1527 1528 1529 1530 1531 1532 1533 1533 1534 1535 1536 1537 1539 1541 1544 1546 1547 1548 1550 1552 1555 1557 1558 1560
1512 1512 1513 1515 1516 1517 1518 1519 1519 1520 1520 1520 1520 1520 1521 1522 1523 1524 1525 1524 1524 1525 1526 1527 1528 1528 1529 1530 1531 1532 1533 1535 1537 1540 1542 1542 1544 1546 1549 1551 1553 1555 1557
1509 1511 1513 1514 1515 1517 1518 1518 1519 1519 1519 1519 1518 1518 1518 1519 1519 1520 1520 1521 1521 1521 1522 1522 1523 1524 1525 1526 1527 1528 1529 1531 1534 1536 1537 1537 1539 1542 1545 1547 1549 1551 1553
1510 1512 1514 1515 1516 1516 1517 1517 1517 1517 1517 1517 1516 1516 1516 1515 1515 1516 1517 1517 1517 1518 1518 1518 1519 1520 1521 1521 1522 1524 1524 1526 1528 1531 1531 1532 1535 1537 1539 1542 1544 1546 1548
1512 1513 1514 1515 1515 1515 1515 1515 1515 1515 1514 1514 1513 1513 1512 1511 1511 1511 1512 1513 1513 1513 1513 1513 1513 1513 1515 1516 1517 1518 1520 1521 1522 1525 1527 1528 1529 1531 1533 1536 1538 1541 1543
1513 1514 1515 1516 1515 1515 1514 1514 1514 1513 1513 1511 1510 1509 1509 1508 1507 1507 1507 1508 1508 1508 1508 1508 1508 1508 1509 1510 1511 1513 1514 1515 1516 1518 1520 1522 1523 1525 1527 1529 1532 1534 1537
1514 1514 1514 1515 1514 1514 1514 1513 1513 1512 1511 1510 1508 1507 1506 1505 1504 1504 1503 1503 1503 1503 1503 1503 1504 1503 1504 1505 1506 1508 1508 1510 1511 1512 1513 1515 1517 1518 1520 1523 1525 1528 1531
1515 1515 1515 1515 1515 1514 1514 1513 1512 1511 1509 1508 1506 1505 1503 1502 1502 1501 1500 1499 1499 1499 1498 1498 1499 1499 1500 1501 1502 1503 1503 1504 1505 1506 1506 1507 1509 1511 1514 1517 1519 1522 1525
1516 1516 1516 1516 1515 1514 1513 1512 1511 1510 1508 1506 1505 1502 1501 1500 1499 1498 1497 1496 1495 1495 1494 1494 1494 1495 1496 1498 1498 1499 1499 1499 1499 1500 1500 1501 1503 1506 1508 1510 1512 1516 1519
1517 1517 1516 1515 1514 1513 1512 1511 1509 1508 1506 1504 1503 1500 1498 1497 1496 1495 1493 1493 1492 1491 1491 1491 1491 1492 1493 1494 1495 1495 1495 1495 1494 1495 1496 1497 1498 1500 1503 1505 1508 1512 1514
1518 1517 1516 1515 1513 1512 1511 1509 1508 1506 1504 1503 1500 1498 1496 1494 1493 1492 1490 1489 1488 1488 1488 1488 1488 1489 1489 1491 1492 1493 1492 1492 1490 1490 1491 1493 1494 1497 1499 1501 1504 1507 1510
1518 1517 1516 1513 1512 1510 1508 1507 1505 1502 1501 1499 1497 1496 1494 1491 1490 1489 1487 1486 1484 1484 1484 1485 1486 1486 1486 1487 1488 1489 1489 1488 1487 1487 1488 1490 1492 1494 1496 1499 1501 1504 1507
1517 1516 1514 1512 1510 1507 1505 1503 1501 1499 1497 1495 1493 1492 1490 1488 1487 1486 1484 1483 1481 1481 1480 1481 1481 1482 1483 1483 1484 1485 1486 1486 1487 1486 1487 1488 1489 1491 1494 1496 1499 1501 1504
1515 1514 1513 1510 1507 1504 1502 1501 1498 1496 1494 1491 1489 1487 1485 1484 1483 1482 1481 1479 1478 1477 1477 1476 1477 1478 1479 1480 1481 1481 1482 1483 1484 1485 1486 1487 1487 1489 1490 1493 1496 1498 1500
1512 1511 1510 1507 1505 1502 1500 1498 1496 1493 1490 1487 1484 1483 1481 1480 1479 1479 1478 1476 1475 1475 1474 1473 1473 1473 1474 1475 1476 1477 1478 1479 1480 1481 1483 1484 1485 1486 1487 1490 1493 1495 1497